Location: Dompnac
(44.5644°N, 4.1026°E)
Time: 11:48:13
(UTC+00:00)

Cosmos 1891 Rocket - Pass Details

Date: 19 January 2021
Orbit: 934 x 1018 km, 82.9° (Epoch: 24 February)

Event Time Altitude Azimuth Distance (km) Brightness Sun altitude
Rises 05:52:33 0° 208° (SSW) 3,674 7.4 -14.4°
Reaches altitude 10° 05:55:14 10° 216° (SW) 2,717 6.6 -13.9°
Maximum altitude 06:01:03 41° 285° (WNW) 1,365 4.8 -12.9°
Drops below altitude 10° 06:06:48 10° 355° (N) 2,681 6.6 -11.9°
Sets 06:09:27 0° 3° (N) 3,621 7.3 -11.5°
